Content
SEND FEEDBACK

Daily
Averages
Monthly
Summary
Canada

RICHMOND NATURE PARK, BRITISH COLUMBIA


Home > North America > Canada > British Columbia
Elevation: 10 feet     Latitude: 49 10N     Longitude: 123 05W

WEATHER
 
SELECT A DAY
Number of Records: 194,771;   Date Range: 1/1/95 - 8/27/14
 
SHARE

PRINT THIS DATA

[ ← Previous Day ]
WEATHER ALMANAC - OCTOBER 5, 2013
[ Next Day → ]
[ °C ]   °F
Weather ElementAverageHighLow
Temperature56.1 °F62.6 °F (3:00 pm)51.8 °F (11:00 pm)
Dewpoint49.3 °F53.6 °F (6:00 pm)44.6 °F (2:00 am)
Humidity78 %94 % (11:00 pm)68 % (11:00 am)
Barometer30.29 in30.37 in (1:00 am)30.17 in (10:00 pm)
Wind Speed5.5 mph12.7 mph (2:00 am)
Weather ElementAverage
Visibility23.2 mi
Wind DirectionSSE (145.6 °)

Weather ElementTotal
Precipitation---
Heating Degree Days7.8 (Base 65)
Growing Degree Days7.2 (Base 50)
Averaged from 25 records on October 5, 2013
WEATHER CONDITIONS BREAKOUT
WIND DIRECTION BREAKOUT
WEATHER BY HOUR - OCTOBER 5, 2013
[ °C ]   °F
Local TimeTemperatureDewpointHumidityBarometerVisibilityWind DirectionWind SpeedGust SpeedPrecipitationEventsConditions
1:00 AM53.6 °F48.2 °F82 %30.37 in15.0 miCalmOvercast
2:00 AM53.6 °F44.6 °F72 %30.36 in15.0 miENE (70°)12.7 mphOvercast
3:00 AM53.6 °F44.6 °F72 %30.36 in15.0 miESE (110°)4.6 mphOvercast
4:00 AM53.6 °F46.4 °F77 %30.35 in15.0 miEast (100°)6.9 mphOvercast
5:00 AM53.0 °F47.0 °F73 %30.36 in15.0 miESE (110°)5.8 mphOvercast
5:00 AM53.6 °F46.4 °F77 %30.35 in15.0 miEast (100°)6.9 mphOvercast
6:00 AM53.6 °F46.4 °F77 %30.35 in15.0 miENE (70°)10.4 mphOvercast
7:00 AM53.6 °F48.2 °F82 %30.34 in15.0 miSSE (160°)9.2 mphOvercast
8:00 AM53.6 °F48.2 °F82 %30.35 in15.0 miENE (60°)4.6 mphOvercast
9:00 AM55.4 °F50.0 °F82 %30.35 in20.0 miESE (110°)8.1 mphMostly Cloudy
10:00 AM55.4 °F50.0 °F82 %30.35 in25.0 miENE (70°)5.8 mphMostly Cloudy
11:00 AM57.2 °F50.0 °F77 %30.33 in25.0 miEast (90°)6.9 mphOvercast
11:00 AM57.0 °F49.0 °F68 %30.34 in25.0 miEast (90°)6.9 mphOvercast
12:00 PM59.0 °F50.0 °F72 %30.33 in25.0 miEast (100°)5.8 mphOvercast
1:00 PM60.8 °F50.0 °F68 %30.32 in25.0 miEast (80°)5.8 mphMostly Cloudy
2:00 PM59.0 °F51.8 °F77 %30.29 in30.0 miWSW (250°)5.8 mphMostly Cloudy
3:00 PM62.6 °F51.8 °F68 %30.26 in30.0 miVariable2.3 mphMostly Cloudy
4:00 PM60.8 °F51.8 °F72 %30.25 in30.0 miWest (270°)5.8 mphMostly Cloudy
5:00 PM60.8 °F50.0 °F68 %30.23 in30.0 miWest (260°)5.8 mphMostly Cloudy
6:00 PM59.0 °F53.6 °F82 %30.21 in30.0 miNNW (340°)3.5 mphMostly Cloudy
7:00 PM57.2 °F51.8 °F82 %30.20 in30.0 miCalmOvercast
8:00 PM55.4 °F51.8 °F88 %30.19 in30.0 miNorth (360°)2.3 mphMostly Cloudy
9:00 PM55.4 °F51.8 °F88 %30.18 in30.0 miNorth (350°)3.5 mphMostly Cloudy
10:00 PM53.6 °F50.0 °F88 %30.17 in30.0 miSE (140°)3.5 mphMostly Cloudy
11:00 PM51.8 °F50.0 °F94 %30.17 in30.0 miNorth (350°)4.6 mphMostly Cloudy
Hourly data recorded from CYVR, located miles away from Richmond Nature Park, British Columbia







STORIES FROM OUR PARTNERS